Temp
20 19 19 19 18 19 19 19 19 18 19 18 18 18 18 17 17 16 16 16 16 16
20 20 19 19 19 20 20 19 18 18 18 18 17 17 17 17 16 16 16 16 16 16
20 20 19 19 18 19 19 19 18 18 17 17 17 16 16 16 16 16 15 15 15 15
19 20 20 20 20 20 19 19 18 17 17 16 16 15 15 15 15 14 14 14 14 14
19 19 20 19 19 19 19 18 17 17 16 15 15 15 14 14 13 14 14 13 13 13
15 16 16 18 19 18 17 16 16 16 15 15 14 13 13 13 13 13 13 13 13 13
14 14 13 12 13 13 13 14 14 15 14 14 13 12 11 12 12 12 12 12 12 12
14 13 15 13 13 11 12 12 14 12 11 11 11 11 10 10 11 11 11 11 11 11
13 14 13 13 13 13 12 12 13 13 13 10 10 10 10 11 11 11 11 11 11 11
11 11 11 11 11 11 10 11 10 10 9 9 9 9 10 11 10 11 11 10 10 10
10 10 10 10 10 10 10 10 10 9 8 8 8 9 10 10 10 10 10 10 10 10
8 8 9 9 8 8 8 8 8 8 8 8 8 8 9 9 10 9 9 9 9 9
8 8 8 8 8 8 8 8 7 7 7 7 8 8 8 8 9 9 8 8 8 8
8 7 7 7 7 7 7 7 7 7 7 7 7 8 8 8 8 8 8 8 8 8
Height
759 764 767 771 772 775 781 787 794 798 802 806 809 812 814 816 818 821 823 826 827 830
752 760 763 767 770 775 779 784 789 794 798 802 806 808 811 813 816 820 822 822 825 827
745 752 759 764 767 768 773 780 785 790 794 797 802 805 806 813 814 817 821 822 825 826
738 745 753 759 764 767 770 773 778 782 789 791 796 802 805 807 810 814 818 819 823 825
733 742 747 752 759 763 764 767 773 779 785 789 792 797 801 804 808 811 814 816 821 823
734 736 743 748 751 756 760 764 768 773 781 785 790 795 800 802 806 809 812 815 819 821
723 730 746 754 757 754 759 763 767 771 777 782 787 792 795 798 803 806 809 809 814 818
724 731 729 745 749 753 752 759 762 766 772 778 781 788 792 799 805 806 806 808 811 816
724 731 732 733 746 751 754 763 762 764 764 772 780 786 791 798 803 804 806 808 810 813
731 733 735 742 750 752 754 764 760 760 765 772 781 780 791 797 802 804 806 807 809 814
733 736 742 747 749 751 753 756 755 762 766 773 777 780 787 794 797 801 804 807 808 813
738 741 745 746 747 750 752 755 761 765 766 769 776 783 787 791 792 796 801 805 809 811
740 742 743 745 748 750 753 756 762 764 766 770 776 780 783 786 791 794 799 803 806 809
744 745 748 751 753 754 756 759 761 763 766 770 775 777 782 784 788 792 795 800 802 807
Wind_Speed
33 32 36 36 34 41 41 38 35 33 33 32 30 30 29 30 31 30 29 28 29 29
40 35 39 39 42 43 40 39 37 36 34 32 30 30 30 29 27 28 28 28 27 22
43 39 40 42 42 43 42 40 38 37 35 32 30 28 27 25 25 27 26 23 19 17
41 40 40 43 42 41 41 42 41 39 37 34 32 28 27 26 25 23 22 18 20 18
38 38 41 42 42 43 43 42 41 38 37 33 32 28 28 25 23 22 22 21 19 17
23 32 32 40 43 43 43 42 41 38 36 32 29 26 24 20 21 22 20 18 18 18
14 15 14 5 17 33 35 40 39 38 34 30 29 28 25 24 23 21 20 18 16 16
23 16 12 21 20 19 28 32 34 30 28 30 31 30 24 22 23 22 19 16 15 15
23 22 28 27 32 26 33 36 37 28 30 34 29 27 22 24 24 20 17 18 18 17
22 24 25 30 31 29 29 35 30 25 26 29 29 22 23 23 21 19 19 19 18 18
13 14 14 18 22 25 26 24 22 24 27 25 24 24 25 23 21 18 17 19 19 19
12 14 14 13 14 15 16 17 21 23 22 22 23 23 22 21 20 18 19 20 20 18
11 12 11 10 10 11 12 15 17 17 19 20 22 22 20 20 20 19 19 20 20 18
13 12 11 12 10 9 11 12 13 14 15 16 19 18 20 19 23 22 20 22 22 21
Wind_Direction
202 198 192 188 184 186 188 193 195 197 202 206 207 208 207 208 208 206 206 211 216 220
198 205 199 193 194 195 198 198 199 204 206 207 210 211 211 208 206 211 213 213 213 218
201 204 203 199 197 197 200 200 201 204 208 207 210 210 204 209 211 214 218 217 211 207
203 205 206 205 205 205 203 202 201 203 206 205 205 206 210 213 213 213 215 212 213 208
199 199 201 204 208 208 206 201 202 203 204 204 202 204 210 212 211 214 211 209 206 211
194 188 192 203 206 208 208 199 199 201 202 199 203 205 210 209 214 213 211 208 214 220
139 138 63 324 218 201 199 197 196 197 197 202 204 205 209 207 212 208 210 212 215 216
190 199 265 298 239 197 190 198 192 198 197 205 204 210 206 210 209 206 202 204 205 211
191 201 178 189 223 205 204 210 198 206 207 209 205 204 201 206 207 204 200 197 203 206
162 170 171 185 199 197 196 202 197 198 199 202 202 189 199 205 207 200 206 205 202 202
135 144 158 169 179 186 192 200 199 204 204 201 197 189 196 199 200 205 214 212 216 216
134 145 157 162 167 181 184 184 189 196 195 198 196 195 197 201 200 203 210 214 214 216
111 136 137 147 164 176 186 191 198 196 201 199 200 200 201 207 206 205 208 210 214 217
82 102 126 136 146 164 182 191 194 199 201 206 207 205 209 211 211 210 206 215 215 218